Carson City, NV

7:54 AM PST on November 22, 2019 (GMT -0800)
Carson

Weather History for KCXP - October, 2019

Change the Weather History Date:

Monday, October 14, 2019

  Actual Average Record
Temperature  
Mean Temperature 50 °F -  
Max Temperature 71 °F 68 °F 86 °F (2015)
Min Temperature 30 °F 31 °F 26 °F (2013)
Degree Days  
Heating Degree Days 14    
Moisture  
Dew Point 16 °F    
Average Humidity 31    
Maximum Humidity 69    
Minimum Humidity 8    
Precipitation  
Precipitation 0.00 in - - ()
Sea Level Pressure  
Sea Level Pressure 30.06 in    
Wind  
Wind Speed 2 mph ()    
Max Wind Speed 9 mph    
Max Gust Speed 16 mph    
Visibility 9.9 miles    
Events      
Averages and records for this station are not official NWS values.
T = Trace of Precipitation, MM = Missing Value Source: Averaged Metar Reports

Daily Weather History Graph

Daily Weather History Graph

Search for Another Location

Airport or City:

Astronomy

Oct. 14, 2019 Rise Set
Actual Time 7:07 AM PDT 6:21 PM PDT
Civil Twilight 6:40 AM PDT 6:48 PM PDT
Nautical Twilight 6:09 AM PDT 7:19 PM PDT
Astronomical Twilight 5:38 AM PDT 7:50 PM PDT
Moon 7:14 PM PDT (10/14) 7:44 AM PDT (10/14)
Length of Visible Light 12h 08m
Length of Day
11h 14m
Full, 99% of the Moon is Illuminated
Oct 14
Full
Oct 21
Last Quarter
Oct 27
New
Nov 4
First Quarter
Nov 12
Full

Hourly Weather History & Observations

Time (PDT) Temp. Windchill Dew Point Humidity Pressure Visibility Wind Dir Wind Speed Gust Speed Precip Events Conditions
12:15 AM 41.0 °F - 21.2 °F 45% 29.99 in 10.0 mi Calm Calm - N/A   Partly Cloudy
12:35 AM 39.2 °F - 21.2 °F 49% 30.00 in 10.0 mi Calm Calm - N/A   Partly Cloudy
12:55 AM 39.2 °F - 21.2 °F 49% 30.00 in 10.0 mi Calm Calm - N/A   Clear
1:15 AM 39.2 °F - 21.2 °F 49% 30.00 in 10.0 mi Calm Calm - N/A   Partly Cloudy
1:35 AM 37.4 °F - 19.4 °F 48% 30.01 in 10.0 mi Calm Calm - N/A   Partly Cloudy
1:55 AM 41.0 °F - 21.2 °F 45% 30.01 in 10.0 mi Calm Calm - N/A   Partly Cloudy
2:15 AM 41.0 °F 39.0 °F 21.2 °F 45% 30.02 in 10.0 mi NW 3.5 mph - N/A   Partly Cloudy
2:35 AM 39.2 °F - 21.2 °F 49% 30.01 in 10.0 mi Calm Calm - N/A   Clear
2:55 AM 39.2 °F - 21.2 °F 49% 30.01 in 10.0 mi Calm Calm - N/A   Partly Cloudy
3:15 AM 35.6 °F - 21.2 °F 56% 30.02 in 10.0 mi Calm Calm - N/A   Partly Cloudy
3:35 AM 35.6 °F - 21.2 °F 56% 30.02 in 10.0 mi Calm Calm - N/A   Clear
3:55 AM 33.8 °F - 19.4 °F 56% 30.02 in 10.0 mi Calm Calm - N/A   Partly Cloudy
4:15 AM 33.8 °F - 19.4 °F 56% 30.02 in 10.0 mi Calm Calm - N/A   Partly Cloudy
4:35 AM 33.8 °F - 19.4 °F 56% 30.03 in 10.0 mi Calm Calm - N/A   Clear
4:55 AM 33.8 °F - 19.4 °F 56% 30.03 in 10.0 mi Calm Calm - N/A   Partly Cloudy
5:15 AM 35.6 °F 32.8 °F 19.4 °F 52% 30.03 in 10.0 mi West 3.5 mph - N/A   Scattered Clouds
5:35 AM 35.6 °F 31.7 °F 21.2 °F 56% 30.04 in 10.0 mi West 4.6 mph - N/A   Partly Cloudy
5:55 AM 32.0 °F - 19.4 °F 60% 30.04 in 10.0 mi Calm Calm - N/A   Partly Cloudy
6:15 AM 30.2 °F - 19.4 °F 64% 30.05 in 10.0 mi Calm Calm - N/A   Partly Cloudy
6:35 AM 32.0 °F - 21.2 °F 64% 30.06 in 10.0 mi Calm Calm - N/A   Scattered Clouds
6:55 AM 30.2 °F - 21.2 °F 69% 30.07 in 10.0 mi Calm Calm - N/A   Partly Cloudy
7:15 AM 30.2 °F - 19.4 °F 64% 30.07 in 10.0 mi Calm Calm - N/A   Clear
7:35 AM 32.0 °F - 19.4 °F 60% 30.07 in 10.0 mi Calm Calm - N/A   Clear
7:55 AM 35.6 °F - 19.4 °F 52% 30.08 in 10.0 mi Calm Calm - N/A   Clear
8:15 AM 37.4 °F - 19.4 °F 48% 30.09 in 10.0 mi Calm Calm - N/A   Clear
8:35 AM 39.2 °F - 19.4 °F 45% 30.09 in 10.0 mi Calm Calm - N/A   Clear
8:55 AM 42.8 °F - 17.6 °F 36% 30.10 in 10.0 mi Calm Calm - N/A   Clear
9:15 AM 44.6 °F - 17.6 °F 34% 30.10 in 10.0 mi Calm Calm - N/A   Clear
9:35 AM 46.4 °F - 17.6 °F 32% 30.10 in 10.0 mi Calm Calm - N/A   Clear
9:55 AM 48.2 °F - 17.6 °F 30% 30.10 in 10.0 mi SW 3.5 mph - N/A   Clear
10:15 AM 50.0 °F - 17.6 °F 28% 30.10 in 10.0 mi Calm Calm - N/A   Clear
10:35 AM 51.8 °F - 17.6 °F 26% 30.09 in 10.0 mi Calm Calm - N/A   Clear
10:55 AM 53.6 °F - 17.6 °F 24% 30.09 in 10.0 mi Calm Calm - N/A   Clear
11:15 AM 57.2 °F - 17.6 °F 21% 30.08 in 10.0 mi Calm Calm - N/A   Clear
11:35 AM 59.0 °F - 17.6 °F 20% 30.08 in 10.0 mi Calm Calm - N/A   Clear
11:55 AM 60.8 °F - 17.6 °F 19% 30.07 in 10.0 mi Variable 3.5 mph - N/A   Clear
12:15 PM 62.6 °F - 17.6 °F 18% 30.07 in 10.0 mi Calm Calm - N/A   Clear
12:35 PM 66.2 °F - 15.8 °F 14% 30.06 in 10.0 mi Calm Calm - N/A   Clear
12:55 PM 68.0 °F - 15.8 °F 13% 30.06 in 10.0 mi Calm Calm - N/A   Clear
1:15 PM 68.0 °F - 12.2 °F 12% 30.05 in 10.0 mi ENE 5.8 mph - N/A   Clear
1:35 PM 68.0 °F - 15.8 °F 13% 30.05 in 10.0 mi East 6.9 mph - N/A   Clear
1:55 PM 69.8 °F - 15.8 °F 13% 30.04 in 10.0 mi Variable 3.5 mph 11.5 mph N/A   Clear
2:15 PM 69.8 °F - 14.0 °F 12% 30.03 in 10.0 mi East 5.8 mph - N/A   Clear
2:35 PM 71.6 °F - 14.0 °F 11% 30.03 in 10.0 mi NE 6.9 mph 13.8 mph N/A   Clear
2:55 PM 71.6 °F - 14.0 °F 11% 30.02 in 10.0 mi East 9.2 mph - N/A   Clear
3:15 PM 71.6 °F - 12.2 °F 10% 30.02 in 10.0 mi NE 8.1 mph - N/A   Clear
3:35 PM 71.6 °F - 10.4 °F 9% 30.02 in 10.0 mi East 8.1 mph - N/A   Clear
3:55 PM 71.6 °F - 6.8 °F 8% 30.02 in 10.0 mi ENE 6.9 mph - N/A   Clear
4:15 PM 71.6 °F - 8.6 °F 9% 30.03 in 9.0 mi ENE 9.2 mph 16.1 mph N/A   Clear
4:35 PM 71.6 °F - 6.8 °F 8% 30.03 in 10.0 mi East 9.2 mph - N/A   Clear
4:55 PM 71.6 °F - 8.6 °F 9% 30.03 in 10.0 mi East 8.1 mph - N/A   Clear
5:15 PM 69.8 °F - 8.6 °F 9% 30.03 in 10.0 mi East 9.2 mph - N/A   Clear
5:35 PM 68.0 °F - 10.4 °F 11% 30.03 in 10.0 mi East 9.2 mph - N/A   Clear
5:55 PM 66.2 °F - 12.2 °F 12% 30.03 in 10.0 mi ENE 9.2 mph - N/A   Partly Cloudy
6:15 PM 64.4 °F - 10.4 °F 12% 30.03 in 10.0 mi NE 9.2 mph - N/A   Clear
6:35 PM 64.4 °F - 10.4 °F 12% 30.05 in 10.0 mi NE 8.1 mph - N/A   Clear
6:55 PM 62.6 °F - 10.4 °F 13% 30.06 in 10.0 mi Calm Calm - N/A   Clear
7:10 PM 60.8 °F - 12.2 °F 15% 30.07 in 10.0 mi NW 6.9 mph - N/A   Clear
7:35 PM 57.2 °F - 14.0 °F 18% 30.07 in 10.0 mi Calm Calm - N/A   Clear
7:55 PM 55.4 °F - 14.0 °F 20% 30.08 in 10.0 mi SSW 3.5 mph - N/A   Clear
8:15 PM 55.4 °F - 14.0 °F 20% 30.08 in 10.0 mi Calm Calm - N/A   Clear
8:35 PM 53.6 °F - 14.0 °F 21% 30.09 in 7.0 mi SW 4.6 mph - N/A   Partly Cloudy
8:55 PM 53.6 °F - 14.0 °F 21% 30.09 in 10.0 mi Calm Calm - N/A   Clear
9:15 PM 51.8 °F - 15.8 °F 24% 30.10 in 10.0 mi Calm Calm - N/A   Clear
9:35 PM 48.2 °F - 14.0 °F 25% 30.11 in 10.0 mi Calm Calm - N/A   Clear
9:55 PM 48.2 °F - 14.0 °F 25% 30.12 in 10.0 mi Calm Calm - N/A   Clear
10:15 PM 46.4 °F - 14.0 °F 27% 30.13 in 10.0 mi Calm Calm - N/A   Clear
10:35 PM 46.4 °F - 12.2 °F 25% 30.14 in 10.0 mi Calm Calm - N/A   Clear
10:55 PM 44.6 °F - 14.0 °F 29% 30.14 in 10.0 mi Calm Calm - N/A   Clear
11:15 PM 44.6 °F - 14.0 °F 29% 30.15 in 10.0 mi Calm Calm - N/A   Clear
11:35 PM 42.8 °F - 12.2 °F 29% 30.16 in 10.0 mi Calm Calm - N/A   Clear
11:55 PM 42.8 °F - 14.0 °F 31% 30.16 in 10.0 mi Calm Calm - N/A   Clear